Regional Weather Roundup
Issued by NWS

Home | Current Version | Previous Version | Graphics & Text | Print | Product List | Glossary On
Versions: 1 2 3 4 5 6 7 8 9 10 11 12 13 14 15 16 17 18 19 20 21 22 23 24 25 26 27 28 29 30 31 32 33 34 35 36 37 38 39 40 41 42 43 44 45 46 47 48 49 50
000
ASUS45 KBOU 301907
RWRCO

WEATHER ROUNDUP FOR COLORADO
NATIONAL WEATHER SERVICE DENVER/BOULDER CO
100 PM MDT WED JUL 30 2014

NOTE: "FAIR" INDICATES FEW OR NO CLOUDS BELOW 12000 FEET WITH NO
SIGNIFICANT WEATHER AND/OR OBSTRUCTIONS TO VISIBILITY.

COZ001>005-013-030-031-302000-
...NORTHWEST COLORADO...

CITY           SKY/WX    TMP DP  RH WIND       PRES   REMARKS
CRAIG          CLOUDY    65  54  67 W7        30.29F
HAYDEN         PTSUNNY   64  54  68 E6        30.31S
MEEKER         MOSUNNY   70  54  56 S6        30.29F
MOUNT WERNER   NOT AVBL
STEAMBOAT SPGS CLOUDY    57  56  94 NW3       30.34S
WALDEN         CLOUDY    55  43  62 CALM      30.42R
$$

COZ006>008-011-302000-
...WEST CENTRAL VALLEYS...

CITY           SKY/WX    TMP DP  RH WIND       PRES   REMARKS
GRAND JUNCTION MOSUNNY   79  56  45 VRB6      30.18F
MONTROSE       PTSUNNY   77  55  46 NW9       30.25F
EAGLE          PTSUNNY   73  52  46 NW5       30.29F
RIFLE          PTSUNNY   76  53  44 N5        30.22F
DELTA          MOSUNNY   82  52  35 S7        30.21S
NUCLA          MOSUNNY   75  54  46 W3        30.28F
$$

COZ017>023-064>068-302000-
...SOUTHWEST COLORADO...

CITY           SKY/WX    TMP DP  RH WIND       PRES   REMARKS
DURANGO        MOSUNNY   81  47  30 MISG      30.25F
CORTEZ         MOSUNNY   83  49  30 VRB3      30.22F
PAGOSA SPRINGS PTSUNNY   75  41  29 SW6       30.33F
TELLURIDE      NOT AVBL
WOLF CREEK PAS NOT AVBL
$$

COZ009-010-012-014-032>034-037-058>063-302000-
...CENTRAL COLORADO...

CITY           SKY/WX    TMP DP  RH WIND       PRES   REMARKS
ASPEN          CLOUDY    68  49  50 N3        30.36S
BUENA VISTA    PTSUNNY   69  47  45 E6        30.36F THUNDER
COPPER MTN     CLOUDY    52  45  76 W14       30.64S
BERTHOUD PASS  FOG       37  36  93 E18G24    30.68S VSB<1/4
COTTONWOOD PAS PTSUNNY   64  45  48 SE6       30.50R
GUNNISON       MOSUNNY   70  45  40 W6        30.36F
KREMMLING      RAIN      59  54  82 N7        30.37S
LEADVILLE      CLOUDY    59  42  53 S7        30.47F
MONARCH PASS   FOG       46  45  93 NE7       30.74S VSB<1/4
SALIDA         PTSUNNY   69  53  57 SE12G17   30.42S
SUNLIGHT       CLOUDY    55  50  82 CALM      30.58S
WILKERSON PASS TSTM      45  45 100 E7        30.63S VSB 3/4
$$

COZ069>075-302000-
...SAN LUIS VALLEY/SANGRE DE CRISTO MOUNTAINS...

CITY           SKY/WX    TMP DP  RH WIND       PRES   REMARKS
ALAMOSA        PTSUNNY   71  47  42 CALM      30.32F
LA VETA PASS   CLOUDY    50  50 100 E7        30.54S VSB 1/4
SAGUACHE       PTSUNNY   68  50  52 CALM      30.35F
$$

COZ035-036-038>040-302000-
...NORTHERN COLORADO FRONT RANGE...

CITY           SKY/WX    TMP DP  RH WIND       PRES   REMARKS
DENVER INTL AP RAIN      57  55  93 N5        30.34F FOG
DMNS CITY PARK   N/A     59  58  94 NE8       30.34S
AURORA         HVY RAIN  57  57 100 NE7       30.36S FOG
FRONT RANGE AP RAIN      61  59  94 E6        30.35S
ERIE MUNI ARPT DRIZZLE   60  58  92 N7        30.34S
BOULDER MUN AP   N/A    N/A N/A N/A MISG        N/A
CENTENNIAL     LGT RAIN  58  55  90 NE7       30.35S FOG
BROOMFIELD     DRIZZLE   59  59 100 N9        30.36S
FORT COLLINS   CLOUDY    59  55  88 N7        30.36S
LONGMONT       LGT RAIN  63  59  88 N3        30.36S
$$

COZ041-046-047-076>085-087-088-302000-
...PIKES PEAK/PALMER DIVIDE AND SOUTHERN FOOTHILLS...

CITY           SKY/WX    TMP DP  RH WIND       PRES   REMARKS
COLO. SPRINGS  LGT RAIN  59  57  93 SW9       30.37R FOG
A. F. ACADEMY  LGT RAIN  57  55  94 W2        30.38S FOG
ELLICOTT       CLOUDY    60  55  83 E18       30.35R
FALCON         RAIN      59  53  80 E10       30.39S
FORT CARSON    LGT RAIN  58  58  99 VRB2      30.35S FOG
LIMON          CLOUDY    60  55  83 E12       30.34S
MONUMENT HILL  CLOUDY    55  52  88 E8        30.38F
TRINIDAD       LGT RAIN  63  58  83 NE6       30.31F
$$

COZ042>045-048>051-090-091-302000-
...NORTHEAST COLORADO...

CITY           SKY/WX    TMP DP  RH WIND       PRES   REMARKS
GREELEY ARPT   NOT AVBL
AKRON          CLOUDY    63  56  78 SE10      30.31S
BURLINGTON     CLOUDY    65  56  72 NE10      30.28R
WRAY             N/A     71  56  60 SE5       30.27F
STERLING       LGT RAIN  64  64 100 CALM      30.28S
HOLYOKE        PTSUNNY   73  57  56 SE6       30.26F
FORT MORGAN    CLOUDY    64  58  81 SE9       30.31F
$$

COZ086-089-092>099-302000-
...SOUTHEAST COLORADO...

CITY           SKY/WX    TMP DP  RH WIND       PRES   REMARKS
PUEBLO         LGT RAIN  62  60  93 E8        30.29S FOG
LA JUNTA       CLOUDY    65  59  81 E15       30.27R
LAMAR          CLOUDY    64  59  83 NE13      30.23R
SPRINGFIELD      N/A     63  60  90 N20       30.23S
$$


USA.gov is the U.S. government's official web portal to all federal, state and local government web resources and services.